Temperature
25 23 21 22 23 24 25 25 25 26 28 27 26 25 25 25 24 23 23 22 21 21 21 21 20 20 20 19 19 19 19 19 19 18 18 18 18 18 18 18 18 18 18 18
23 22 23 25 25 26 25 25 25 26 28 27 26 25 24 24 24 23 23 22 21 21 20 20 20 20 20 19 19 19 19 19 18 18 18 18 18 18 18 18 18 18 18 18
22 23 26 26 26 26 25 25 25 26 26 26 25 23 23 23 23 23 22 22 21 21 21 20 20 20 19 19 19 19 19 19 18 18 18 18 18 18 18 18 18 18 17 17
23 25 26 26 26 26 25 26 27 27 25 23 24 22 22 22 22 22 22 21 21 21 20 20 20 20 19 19 19 19 19 18 18 18 18 18 18 18 18 18 18 18 17 17
23 25 25 26 26 27 26 27 27 27 25 22 22 22 21 21 21 21 21 21 21 21 21 20 20 20 19 19 19 19 18 18 18 18 18 18 18 18 18 18 18 17 17 17
24 26 26 26 27 27 28 27 25 22 20 21 22 22 21 20 21 21 21 21 21 21 20 20 20 20 19 19 19 18 18 18 18 18 18 18 18 18 18 17 17 17 17 17
24 25 26 27 26 26 26 23 21 22 20 20 21 21 20 21 21 21 21 21 21 21 20 20 20 19 19 19 18 18 18 17 17 17 17 17 17 18 18 18 18 17 17 17
22 23 25 26 26 25 25 22 21 22 21 20 21 21 20 22 22 22 21 21 21 20 20 20 20 19 19 19 18 18 18 17 17 17 17 17 17 17 17 18 17 17 17 17
22 23 26 28 28 26 26 24 21 20 21 20 20 21 21 21 21 21 21 20 20 20 20 20 20 19 19 19 18 18 18 17 17 17 17 17 17 17 17 17 17 17 17 17
22 23 25 27 28 27 26 24 20 20 21 21 21 21 20 21 20 20 20 20 20 20 20 20 19 19 19 18 18 18 18 17 17 17 17 17 17 17 17 17 17 17 17 17
23 22 24 25 27 26 26 24 21 19 19 20 20 20 21 20 20 20 20 20 20 20 20 20 19 19 19 18 18 18 18 17 17 17 17 17 17 17 17 17 17 17 17 17
22 21 21 23 25 26 25 24 21 21 20 19 19 20 22 20 20 20 20 20 20 20 20 20 19 19 18 18 18 17 18 17 17 17 17 17 17 17 17 17 16 16 16 16
23 20 21 22 23 24 25 24 21 19 18 18 19 20 21 20 20 20 20 21 20 20 20 20 19 19 18 18 18 17 17 17 17 17 17 17 17 17 17 16 16 16 16 16
23 20 20 22 22 23 24 24 23 20 19 20 20 21 20 20 19 19 20 20 20 20 20 20 19 19 19 18 18 18 17 17 17 17 17 17 17 17 17 16 16 16 16 16
21 21 22 22 24 25 25 25 24 23 21 21 21 21 21 20 20 20 20 20 19 19 19 19 19 19 19 18 18 18 18 17 17 17 17 17 17 17 16 16 16 16 16 16
19 21 22 23 24 24 24 24 24 24 23 22 21 20 20 20 20 19 20 19 19 19 19 19 19 19 19 18 18 18 18 17 17 17 17 17 16 16 16 16 16 16 16 15
18 19 19 20 22 23 22 23 23 22 22 22 20 19 19 18 18 18 19 19 19 19 19 19 19 19 19 18 18 18 18 17 17 17 17 16 16 16 16 16 15 15 15 15
18 18 17 18 21 21 20 22 22 21 20 20 19 19 18 17 17 18 19 19 19 19 19 19 19 18 18 18 18 18 18 17 17 17 16 16 16 16 16 15 15 15 15 14
17 17 17 16 18 20 21 21 21 20 18 19 18 18 18 18 17 17 18 18 18 18 19 18 18 18 18 18 18 17 17 17 17 17 16 16 16 16 16 15 15 14 14 14
17 16 16 17 19 19 19 21 21 19 17 18 18 17 18 18 16 16 17 17 17 18 18 18 18 18 18 17 17 17 17 17 16 16 16 16 16 15 15 14 14 13 13 13
16 16 16 16 17 18 19 20 21 19 17 17 18 17 17 16 16 16 16 16 17 17 17 17 17 17 17 17 17 16 16 16 16 16 15 15 15 14 14 13 13 13 12 12
15 15 16 15 16 17 18 18 17 16 17 17 17 17 16 16 16 16 16 16 16 16 16 16 16 16 16 16 16 16 15 15 15 15 14 14 14 13 13 13 12 12 11 11
15 15 14 14 15 15 16 16 16 17 16 16 16 16 15 15 15 15 15 15 15 15 15 15 15 15 15 15 15 15 14 14 14 14 13 13 13 12 12 12 11 11 10 10
15 15 14 14 14 14 15 15 16 16 15 15 15 15 15 14 14 14 14 14 14 14 14 14 14 14 14 14 14 14 13 13 13 13 12 12 12 11 11 10 10 10 10 9
15 15 14 14 14 14 14 14 14 14 14 14 14 14 14 14 13 13 13 13 13 13 13 13 13 13 13 13 12 12 12 12 12 12 11 11 10 10 10 9 9 9 9 9
14 14 14 14 14 13 12 13 13 13 13 13 13 13 13 13 12 12 12 12 12 12 12 12 12 12 11 12 11 11 11 11 11 11 10 10 10 9 9 9 8 8 8 8
Wind_Speed
4 3 7 10 10 10 9 11 14 15 10 2 3 3 2 6 8 9 9 9 10 9 9 10 12 12 11 10 11 12 11 9 8 6 6 5 5 4 4 4 8 9 9 8
3 9 14 11 10 11 12 12 12 12 7 2 1 1 0 2 6 9 10 10 10 9 8 9 10 11 12 12 11 11 11 10 9 7 6 5 5 4 4 3 6 9 9 8
11 10 8 11 13 13 14 11 10 9 6 6 3 4 3 3 1 3 6 8 9 12 12 11 11 11 11 11 12 12 11 10 10 9 6 5 5 4 3 4 4 5 8 8
10 13 13 13 14 12 12 14 11 7 2 4 1 2 6 3 2 0 2 4 7 9 10 10 11 11 12 12 11 10 10 10 9 10 9 10 8 6 6 5 5 4 6 7
8 7 9 13 16 13 12 13 8 4 1 3 4 2 6 2 2 3 2 4 4 7 9 10 10 11 10 10 11 10 10 9 9 9 11 10 7 6 5 5 6 5 4 5
11 11 8 11 13 12 10 5 6 6 6 2 4 2 5 4 5 4 4 5 4 6 7 8 8 8 7 8 9 9 10 9 9 10 10 10 10 9 9 7 7 5 3 3
9 13 13 11 11 12 4 2 4 5 5 5 3 1 6 7 5 3 5 5 6 6 7 8 9 8 8 9 9 10 10 9 9 10 10 10 10 11 11 9 8 6 4 4
7 9 8 8 11 10 7 9 8 5 5 5 3 3 5 5 2 2 3 4 5 6 7 9 9 9 9 9 9 10 10 9 10 10 9 9 9 8 7 8 7 7 5 5
9 8 7 7 8 9 6 6 11 8 3 1 3 3 5 2 2 4 4 3 4 7 8 8 8 8 8 9 9 10 10 9 9 9 9 8 8 8 8 7 6 5 5 5
12 7 9 7 4 5 9 8 6 6 4 3 3 3 4 3 3 4 5 5 5 7 9 8 8 8 7 8 8 9 9 9 8 9 9 8 8 8 8 7 7 6 6 5
10 9 8 5 2 4 2 3 6 5 6 6 3 5 6 8 8 8 8 7 8 8 9 10 9 8 8 7 8 9 9 9 8 8 7 8 7 7 8 7 7 6 5 6
8 8 6 7 5 2 5 6 7 5 3 5 5 6 5 7 8 7 6 6 7 8 9 9 9 9 8 8 8 8 9 9 9 9 8 8 8 8 8 7 7 7 6 6
4 7 3 6 7 6 3 3 6 7 5 4 4 5 2 2 4 5 6 6 6 7 8 9 9 9 9 9 8 8 8 9 9 9 9 9 9 9 8 8 7 7 7 6
3 5 7 9 7 3 0 1 4 6 4 4 5 6 3 5 6 5 6 7 8 9 9 10 10 9 10 9 9 9 8 8 9 10 10 10 9 9 8 7 7 7 7 7
4 3 3 4 4 2 1 1 2 3 7 6 5 5 7 9 9 8 7 7 7 8 9 11 11 10 9 9 9 9 9 9 9 10 10 9 9 9 8 8 7 7 7 8
4 2 2 2 2 3 2 2 0 1 3 5 6 1 2 4 5 4 5 7 7 8 8 8 10 11 11 11 10 10 9 9 9 10 9 8 9 9 9 9 9 9 9 9
2 4 3 1 3 5 1 2 2 3 2 5 5 4 4 6 5 3 4 5 6 7 7 7 8 10 10 10 10 10 10 9 10 9 9 9 9 9 9 10 9 10 10 11
4 4 4 2 3 3 7 2 8 11 9 7 7 5 6 7 6 5 4 5 4 4 5 5 7 7 7 7 8 8 9 10 10 9 9 9 9 9 10 10 11 11 10 11
5 6 4 4 3 4 4 3 3 8 6 5 7 7 6 7 6 5 4 3 3 3 2 2 4 6 6 7 8 9 9 9 9 9 9 9 10 11 11 11 12 12 12 12
5 6 6 4 4 5 4 4 2 10 4 2 5 5 3 3 3 1 1 3 4 4 3 3 4 5 7 7 8 9 9 10 10 10 10 10 11 12 12 12 13 12 13 13
4 4 3 4 3 3 4 4 3 4 6 2 4 4 3 2 3 3 3 3 4 4 4 4 6 6 5 6 9 10 10 9 10 11 12 12 12 12 13 13 12 13 13 13
2 2 2 3 3 5 5 4 3 4 3 3 4 4 4 4 4 5 4 4 5 5 5 6 7 6 5 6 10 12 11 11 12 13 14 13 12 12 13 13 12 12 14 14
2 4 4 4 4 2 2 4 3 3 3 2 2 3 4 5 4 4 4 4 5 5 5 6 8 9 7 6 9 13 12 12 14 15 15 14 14 12 12 13 13 12 11 11
2 1 3 1 1 2 4 5 5 4 3 1 1 2 4 5 6 5 5 5 5 5 6 7 9 10 9 9 10 12 12 13 16 16 15 14 14 13 12 10 9 9 9 10
3 0 2 1 2 2 3 3 3 3 3 2 2 2 4 6 7 6 6 6 6 7 7 8 10 11 11 11 12 13 13 15 17 17 15 14 13 13 13 11 9 8 6 8
3 4 4 5 5 4 2 0 2 3 3 3 4 4 4 7 8 8 7 7 8 9 9 11 12 13 13 13 14 12 12 15 17 15 14 12 11 11 11 13 12 16 13 14
Wind_Direction
230 191 234 236 226 230 258 276 282 282 279 262 249 237 187 164 152 156 159 162 160 160 158 153 156 159 159 162 164 164 164 163 156 154 151 145 150 149 151 155 154 150 144 140
278 252 240 240 250 257 266 275 283 288 291 241 226 356 69 164 177 170 167 169 161 146 149 155 155 159 167 171 172 168 169 164 162 163 157 151 149 152 157 155 149 150 146 145
221 244 244 241 251 259 266 259 261 275 319 9 63 4 328 305 0 139 156 161 160 163 164 164 164 166 169 174 178 175 172 169 168 160 143 134 123 115 125 144 152 153 150 149
242 248 255 260 262 252 263 262 259 276 345 315 30 254 289 290 313 315 146 150 165 168 165 169 169 172 177 180 176 170 170 172 169 160 157 158 160 164 174 166 160 153 148 149
244 245 243 249 254 254 249 257 257 262 88 10 352 118 284 308 271 263 213 172 170 174 173 173 174 175 175 173 173 174 168 170 167 164 164 164 166 165 155 147 148 150 151 152
248 262 251 242 260 260 259 287 5 39 66 352 272 172 267 252 233 237 204 179 172 179 178 171 165 158 159 163 168 171 171 174 171 169 168 167 166 160 154 156 158 158 155 154
274 272 263 259 273 286 279 91 19 350 3 261 276 187 247 259 252 209 202 201 181 173 172 168 160 160 163 166 166 168 171 175 174 171 170 169 165 163 165 167 167 163 162 163
232 273 255 235 219 227 229 149 162 200 226 269 315 230 256 271 278 192 162 171 172 169 176 173 169 168 168 168 166 167 173 175 175 172 169 165 161 164 169 169 165 169 173 172
204 248 262 256 240 189 204 197 176 152 176 240 274 273 302 301 66 96 123 143 176 171 174 173 165 165 165 164 167 170 170 170 172 168 161 162 161 162 166 164 160 165 167 166
184 235 277 280 285 223 183 170 107 124 160 236 267 237 224 234 164 146 161 181 182 173 171 167 164 167 167 162 160 162 162 163 160 163 169 168 163 160 157 154 158 163 164 157
176 196 274 338 259 231 162 144 129 131 150 157 214 263 222 195 185 182 190 183 177 177 172 166 165 162 156 152 156 157 159 157 162 168 168 163 162 155 147 150 155 154 153 156
186 166 233 258 266 216 155 168 144 148 217 163 163 255 258 188 190 184 172 176 181 174 169 165 160 150 150 153 157 162 165 168 172 172 167 167 164 153 149 151 152 148 146 150
151 137 171 319 333 0 76 135 147 138 128 143 155 247 277 166 199 187 160 163 170 162 159 161 161 160 163 163 160 165 173 174 175 170 168 168 164 158 157 156 150 145 142 138
119 114 160 190 209 217 317 69 127 119 138 180 196 196 218 204 199 183 168 169 169 170 170 167 168 169 170 168 166 169 174 175 171 168 168 168 169 164 158 151 144 138 133 129
83 125 159 184 197 155 183 205 136 145 173 176 205 183 212 207 190 183 176 173 172 168 171 177 174 171 173 172 171 171 173 170 167 164 167 170 164 155 147 142 136 129 123 120
48 102 73 8 12 60 37 337 3 125 140 143 129 109 250 152 132 131 154 158 171 176 175 178 177 173 178 179 174 171 168 164 158 161 165 158 150 146 143 140 131 121 112 103
32 95 87 306 351 51 343 271 89 71 63 132 143 179 137 98 97 123 143 153 165 174 168 169 181 183 181 178 171 171 168 157 153 155 154 150 147 141 137 133 123 118 113 107
139 109 124 129 66 216 246 278 105 91 60 69 97 100 109 118 107 80 92 122 131 160 168 173 177 176 178 171 165 162 156 151 150 151 150 146 139 133 129 124 120 115 110 105
142 136 121 124 163 255 303 357 112 113 67 47 96 93 111 131 88 49 39 84 115 113 126 164 166 154 159 158 154 149 148 145 144 146 145 141 136 132 128 125 122 118 111 105
51 99 120 129 152 207 248 303 94 105 95 16 94 93 93 108 101 219 58 81 81 78 77 105 122 126 142 151 144 140 141 139 141 138 131 126 125 124 124 123 119 115 111 108
20 44 113 148 180 233 272 308 49 128 187 173 101 99 97 132 177 166 128 100 89 90 80 99 113 121 134 140 136 133 129 129 127 120 116 113 111 113 116 115 116 117 115 110
184 145 156 138 167 233 317 42 105 172 164 108 92 93 106 125 116 116 116 108 97 93 89 104 113 113 112 124 131 128 124 121 115 110 107 105 105 108 110 112 112 114 117 112
200 186 179 180 192 232 35 99 100 112 112 99 101 106 128 139 142 130 112 105 101 102 102 104 110 103 96 104 120 122 120 118 112 106 103 100 96 94 98 105 110 111 112 114
285 100 113 101 122 78 58 59 49 56 78 74 127 153 162 164 152 134 117 106 99 98 103 106 105 104 97 95 99 108 112 113 110 107 103 100 98 91 84 85 93 105 111 114
240 126 112 133 146 86 44 40 43 41 46 48 75 132 152 147 142 134 121 114 108 98 98 101 104 104 101 100 98 102 107 109 108 106 103 99 95 96 88 78 70 86 86 118
213 181 170 205 196 172 189 91 56 61 59 73 99 99 111 128 130 123 118 112 106 102 100 101 101 101 100 98 96 97 103 109 111 109 108 107 105 102 102 98 82 60 75 88
Height
1489 1495 1500 1496 1494 1495 1495 1497 1495 1483 1469 1472 1475 1475 1472 1472 1473 1473 1474 1477 1479 1482 1485 1487 1489 1492 1494 1496 1498 1501 1505 1509 1513 1517 1521 1524 1528 1532 1534 1537 1539 1542 1544 1546
1493 1496 1487 1485 1486 1488 1490 1494 1491 1479 1468 1470 1476 1477 1473 1473 1472 1472 1473 1475 1478 1481 1484 1486 1488 1490 1493 1495 1497 1500 1503 1507 1511 1515 1519 1523 1527 1530 1534 1536 1538 1541 1543 1545
1493 1485 1479 1482 1484 1487 1487 1489 1486 1482 1473 1471 1478 1487 1480 1475 1474 1474 1474 1475 1477 1479 1482 1484 1487 1489 1491 1494 1496 1498 1502 1505 1509 1513 1517 1521 1525 1529 1532 1534 1537 1539 1541 1543
1485 1478 1478 1480 1481 1481 1487 1474 1473 1474 1482 1492 1485 1504 1488 1480 1477 1475 1476 1478 1479 1480 1481 1483 1485 1487 1489 1491 1494 1496 1500 1504 1507 1511 1515 1518 1522 1525 1529 1532 1535 1537 1540 1542
1481 1473 1475 1478 1473 1471 1474 1465 1468 1470 1480 1493 1491 1499 1496 1483 1481 1477 1475 1476 1479 1480 1481 1482 1484 1486 1489 1491 1492 1495 1498 1502 1505 1508 1512 1517 1520 1524 1528 1531 1534 1536 1538 1541
1472 1467 1468 1467 1463 1463 1462 1465 1471 1480 1492 1507 1496 1499 1500 1486 1478 1475 1472 1473 1476 1479 1481 1482 1484 1486 1488 1490 1491 1494 1496 1500 1503 1506 1510 1514 1518 1521 1525 1528 1531 1534 1537 1539
1476 1467 1460 1460 1465 1461 1463 1483 1505 1506 1516 1513 1495 1497 1496 1476 1471 1470 1470 1471 1474 1477 1479 1481 1483 1485 1487 1488 1490 1492 1495 1498 1501 1504 1508 1512 1516 1519 1522 1526 1529 1532 1534 1537
1486 1481 1458 1452 1457 1464 1464 1479 1505 1516 1519 1511 1496 1498 1487 1471 1468 1467 1468 1470 1474 1476 1478 1480 1481 1483 1485 1487 1489 1491 1493 1496 1499 1502 1506 1510 1514 1518 1521 1524 1527 1530 1533 1535
1478 1475 1449 1445 1444 1450 1461 1469 1474 1494 1500 1509 1504 1493 1480 1470 1468 1467 1468 1471 1474 1475 1478 1479 1480 1482 1484 1486 1487 1489 1491 1494 1497 1501 1504 1508 1512 1515 1519 1522 1526 1529 1532 1534
1460 1469 1453 1444 1440 1441 1447 1455 1477 1492 1507 1514 1504 1497 1492 1477 1472 1469 1469 1471 1473 1475 1477 1479 1480 1481 1483 1485 1487 1489 1491 1493 1496 1500 1503 1507 1510 1513 1517 1521 1524 1527 1530 1533
1450 1465 1458 1450 1449 1451 1451 1458 1469 1486 1493 1507 1511 1501 1472 1470 1468 1467 1467 1469 1471 1474 1476 1477 1478 1480 1483 1485 1486 1488 1490 1492 1495 1498 1502 1505 1508 1512 1516 1519 1523 1526 1529 1531
1444 1458 1467 1456 1443 1438 1445 1453 1466 1484 1490 1494 1501 1496 1464 1464 1463 1464 1465 1467 1469 1472 1474 1476 1478 1480 1482 1484 1486 1488 1490 1492 1494 1497 1500 1504 1507 1511 1514 1518 1522 1525 1527 1530
1441 1457 1473 1470 1461 1448 1448 1450 1457 1469 1483 1492 1498 1490 1464 1463 1464 1463 1464 1466 1468 1470 1473 1475 1477 1479 1481 1483 1485 1487 1489 1491 1493 1496 1499 1502 1506 1509 1513 1517 1521 1524 1526 1529
1436 1452 1464 1472 1467 1454 1452 1451 1453 1466 1482 1485 1481 1477 1468 1465 1464 1463 1464 1466 1467 1469 1471 1473 1476 1478 1480 1482 1484 1486 1488 1490 1492 1494 1498 1501 1505 1508 1512 1516 1519 1522 1525 1527
1437 1450 1448 1449 1446 1445 1447 1449 1450 1456 1464 1472 1471 1469 1465 1461 1461 1461 1462 1464 1467 1468 1470 1472 1473 1476 1479 1480 1482 1484 1487 1490 1492 1494 1497 1501 1504 1508 1511 1515 1518 1520 1523 1526
1441 1448 1448 1450 1444 1444 1447 1446 1446 1449 1452 1458 1462 1466 1459 1458 1459 1461 1462 1464 1466 1467 1468 1470 1471 1473 1476 1478 1480 1483 1485 1488 1491 1494 1497 1500 1504 1507 1510 1513 1517 1519 1522 1524
1446 1451 1459 1463 1451 1450 1461 1450 1448 1452 1451 1454 1463 1463 1458 1459 1460 1461 1462 1463 1464 1465 1466 1468 1469 1471 1473 1476 1478 1481 1484 1487 1490 1493 1496 1500 1502 1505 1509 1512 1515 1518 1520 1523
1446 1453 1462 1465 1461 1472 1462 1445 1445 1452 1456 1455 1457 1459 1459 1460 1461 1461 1462 1462 1463 1464 1465 1466 1468 1469 1472 1475 1478 1480 1482 1485 1488 1492 1495 1499 1502 1505 1507 1511 1513 1516 1519 1521
1441 1450 1462 1471 1473 1466 1454 1447 1447 1454 1464 1459 1459 1460 1461 1462 1462 1464 1464 1463 1463 1463 1464 1466 1466 1468 1471 1474 1476 1479 1481 1484 1487 1491 1494 1497 1500 1503 1505 1508 1511 1514 1517 1520
1442 1446 1459 1467 1470 1473 1461 1447 1445 1451 1469 1461 1459 1460 1461 1461 1467 1467 1465 1463 1463 1463 1463 1464 1465 1467 1469 1472 1474 1477 1480 1483 1486 1489 1492 1496 1499 1501 1503 1506 1509 1513 1516 1519
1455 1456 1461 1466 1468 1463 1452 1446 1446 1463 1468 1460 1459 1459 1460 1462 1463 1464 1463 1463 1462 1462 1462 1463 1464 1466 1467 1470 1473 1475 1479 1482 1485 1488 1491 1495 1498 1500 1502 1505 1508 1512 1515 1518
1460 1462 1463 1466 1470 1469 1450 1449 1455 1459 1457 1457 1457 1458 1459 1460 1461 1462 1462 1462 1462 1462 1462 1462 1463 1464 1466 1469 1471 1474 1477 1481 1484 1487 1490 1494 1497 1500 1503 1505 1509 1512 1516 1519
1457 1457 1458 1461 1463 1457 1452 1452 1453 1454 1455 1456 1456 1456 1458 1458 1460 1460 1460 1461 1461 1461 1461 1462 1463 1464 1467 1469 1470 1473 1477 1480 1483 1487 1491 1494 1498 1501 1504 1507 1510 1514 1518 1520
1453 1450 1453 1457 1457 1454 1453 1453 1453 1454 1454 1454 1454 1454 1455 1456 1456 1457 1458 1459 1460 1461 1461 1462 1463 1465 1468 1470 1472 1474 1477 1481 1484 1487 1492 1496 1499 1502 1506 1510 1513 1516 1519 1522
1452 1451 1453 1456 1455 1454 1454 1454 1453 1453 1453 1452 1452 1452 1452 1453 1454 1455 1457 1458 1460 1461 1462 1463 1465 1467 1469 1472 1473 1476 1479 1482 1485 1489 1494 1498 1501 1505 1509 1513 1517 1520 1523 1526
1449 1450 1452 1453 1452 1454 1454 1453 1453 1451 1450 1450 1450 1450 1451 1451 1452 1454 1456 1458 1460 1462 1463 1465 1467 1469 1471 1474 1476 1480 1483 1486 1488 1492 1497 1501 1505 1509 1512 1515 1519 1523 1526 1529